PIMOHWEATHER Station Historical Data
Daily Summary for October 30, 2020 Units:  Metric    English   Both
Daily Weekly Monthly Yearly
  High: Low: Average:
Temperature: 35.0 °C 26.0 °C 29.8 °C
Dew Point: 25.0 °C 22.0 °C 23.6 °C
Humidity: 88% 48% 71%
Wind Speed: 38km/h 0km/h 12.1km/h
Wind Gust: 44km/h - -
Wind- - ESE
Pressure: 1015.2 hPa 1010.2 hPa -
Precipitation: 1.19 mm    
 
 
Tabular Data for October 30, 2020
Time Temperature Dew Point Pressure Wind Wind Speed Wind Gust Humidity Rainfall Rate (Hourly) solar
00:04 28.0 °C 24.0 °C 1015.0 hPa NNW 1 km/h 4 km/h 82% 0.00 mm 0.00 W/m2
00:09 28.0 °C 25.0 °C 1015.0 hPa North 4 km/h 4 km/h 83% 0.00 mm 0.00 W/m2
00:14 28.0 °C 24.0 °C 1014.8 hPa Calm   4 km/h 82% 0.00 mm 0.00 W/m2
00:19 28.0 °C 25.0 °C 1014.8 hPa North 5 km/h 8 km/h 83% 0.00 mm 0.00 W/m2
00:24 28.0 °C 25.0 °C 1014.8 hPa North 5 km/h 8 km/h 83% 0.00 mm 0.00 W/m2
00:29 27.0 °C 24.0 °C 1014.7 hPa NNE 5 km/h 8 km/h 83% 0.00 mm 0.00 W/m2
00:34 27.0 °C 24.0 °C 1014.7 hPa North 7 km/h 12 km/h 82% 0.00 mm 0.00 W/m2
00:39 27.0 °C 24.0 °C 1014.6 hPa North 7 km/h 8 km/h 81% 0.00 mm 0.00 W/m2
00:49 27.0 °C 24.0 °C 1014.5 hPa North 4 km/h 4 km/h 82% 0.00 mm 0.00 W/m2
00:54 27.0 °C 24.0 °C 1014.3 hPa North 7 km/h 8 km/h 82% 0.00 mm 0.00 W/m2
00:59 27.0 °C 24.0 °C 1014.3 hPa North 8 km/h 8 km/h 81% 0.00 mm 0.00 W/m2
01:04 27.0 °C 24.0 °C 1014.4 hPa North 7 km/h 8 km/h 81% 0.00 mm 0.00 W/m2
01:09 27.0 °C 24.0 °C 1014.3 hPa NNW 8 km/h 12 km/h 81% 0.00 mm 0.00 W/m2
01:14 27.0 °C 24.0 °C 1014.2 hPa North 8 km/h 8 km/h 81% 0.00 mm 0.00 W/m2
01:19 27.0 °C 24.0 °C 1014.2 hPa North 6 km/h 8 km/h 81% 0.00 mm 0.00 W/m2
01:24 27.0 °C 23.0 °C 1014.2 hPa NNE 5 km/h 8 km/h 81% 0.00 mm 0.00 W/m2
01:29 27.0 °C 23.0 °C 1014.0 hPa North 7 km/h 8 km/h 81% 0.00 mm 0.00 W/m2
01:34 27.0 °C 24.0 °C 1014.1 hPa North 5 km/h 8 km/h 81% 0.00 mm 0.00 W/m2
01:39 27.0 °C 24.0 °C 1014.1 hPa North 10 km/h 12 km/h 82% 0.00 mm 0.00 W/m2
01:44 27.0 °C 24.0 °C 1014.1 hPa North 6 km/h 8 km/h 82% 0.00 mm 0.00 W/m2
01:49 27.0 °C 24.0 °C 1014.1 hPa North 8 km/h 8 km/h 85% 5.41 mm 0.00 W/m2
01:54 26.0 °C 24.0 °C 1013.7 hPa Calm   4 km/h 86% 7.19 mm 0.00 W/m2
01:59 26.0 °C 24.0 °C 1013.8 hPa ENE 5 km/h 8 km/h 86% 7.19 mm 0.00 W/m2
02:04 26.0 °C 24.0 °C 1013.8 hPa NNE 2 km/h 4 km/h 86% 1.80 mm 0.00 W/m2
02:09 26.0 °C 24.0 °C 1013.7 hPa NNE 4 km/h 4 km/h 87% 0.00 mm 0.00 W/m2
02:14 26.0 °C 24.0 °C 1013.5 hPa NE 3 km/h 4 km/h 86% 0.00 mm 0.00 W/m2
02:19 26.0 °C 24.0 °C 1013.4 hPa NE 4 km/h 4 km/h 87% 0.00 mm 0.00 W/m2
02:24 26.0 °C 23.0 °C 1013.4 hPa Calm     86% 0.00 mm 0.00 W/m2
02:29 26.0 °C 24.0 °C 1013.4 hPa NE 1 km/h 4 km/h 87% 0.00 mm 0.00 W/m2
02:34 26.0 °C 24.0 °C 1013.4 hPa NE 2 km/h 4 km/h 87% 0.00 mm 0.00 W/m2
02:39 26.0 °C 24.0 °C 1013.3 hPa Calm     87% 0.00 mm 0.00 W/m2
02:44 26.0 °C 24.0 °C 1013.4 hPa NE 3 km/h 4 km/h 87% 0.00 mm 0.00 W/m2
02:49 26.0 °C 24.0 °C 1013.4 hPa NE 3 km/h 4 km/h 87% 0.00 mm 0.00 W/m2
02:54 26.0 °C 24.0 °C 1013.3 hPa Calm   4 km/h 87% 0.00 mm 0.00 W/m2
02:59 26.0 °C 24.0 °C 1013.2 hPa Calm     87% 0.00 mm 0.00 W/m2
03:04 26.0 °C 24.0 °C 1013.2 hPa Calm   4 km/h 87% 0.00 mm 0.00 W/m2
03:09 26.0 °C 24.0 °C 1013.3 hPa NE 3 km/h 4 km/h 88% 0.00 mm 0.00 W/m2
03:14 26.0 °C 24.0 °C 1013.3 hPa NNE 4 km/h 4 km/h 88% 0.00 mm 0.00 W/m2
03:19 26.0 °C 24.0 °C 1013.4 hPa NNE 4 km/h 4 km/h 88% 0.00 mm 0.00 W/m2
03:24 26.0 °C 24.0 °C 1013.5 hPa North 5 km/h 8 km/h 88% 0.00 mm 0.00 W/m2
03:29 26.0 °C 24.0 °C 1013.6 hPa North 5 km/h 8 km/h 88% 0.00 mm 0.00 W/m2
03:34 26.0 °C 24.0 °C 1013.6 hPa NE 6 km/h 8 km/h 88% 0.00 mm 0.00 W/m2
03:39 26.0 °C 23.0 °C 1013.6 hPa ENE 4 km/h 8 km/h 87% 0.00 mm 0.00 W/m2
03:44 26.0 °C 23.0 °C 1013.5 hPa North 4 km/h 4 km/h 87% 0.00 mm 0.00 W/m2
03:49 26.0 °C 24.0 °C 1013.3 hPa North 4 km/h 4 km/h 88% 0.00 mm 0.00 W/m2
03:54 26.0 °C 24.0 °C 1013.3 hPa North 1 km/h 4 km/h 88% 0.00 mm 0.00 W/m2
03:59 26.0 °C 24.0 °C 1013.3 hPa North 4 km/h 4 km/h 88% 0.00 mm 0.00 W/m2
04:04 26.0 °C 24.0 °C 1013.3 hPa NNE 3 km/h 4 km/h 88% 0.00 mm 0.00 W/m2
04:09 26.0 °C 24.0 °C 1013.2 hPa NNE 4 km/h 4 km/h 88% 0.00 mm 0.00 W/m2
04:14 26.0 °C 24.0 °C 1013.2 hPa North 4 km/h 8 km/h 88% 0.00 mm 0.00 W/m2
04:19 26.0 °C 24.0 °C 1013.3 hPa NNE 5 km/h 8 km/h 88% 0.00 mm 0.00 W/m2
04:24 26.0 °C 24.0 °C 1013.2 hPa North 5 km/h 8 km/h 87% 0.00 mm 0.00 W/m2
04:29 26.0 °C 24.0 °C 1013.2 hPa North 7 km/h 12 km/h 87% 0.00 mm 0.00 W/m2
04:34 26.0 °C 24.0 °C 1013.1 hPa North 8 km/h 12 km/h 87% 0.00 mm 0.00 W/m2
04:39 26.0 °C 24.0 °C 1013.1 hPa NNE 7 km/h 8 km/h 87% 0.00 mm 0.00 W/m2
04:44 26.0 °C 24.0 °C 1013.2 hPa North 5 km/h 8 km/h 87% 0.00 mm 0.00 W/m2
04:49 26.0 °C 24.0 °C 1013.4 hPa North 6 km/h 8 km/h 87% 0.00 mm 0.00 W/m2
04:54 26.0 °C 24.0 °C 1013.4 hPa Calm     87% 0.00 mm 0.00 W/m2
04:59 26.0 °C 24.0 °C 1013.2 hPa North 3 km/h 4 km/h 87% 0.00 mm 0.00 W/m2
05:04 26.0 °C 24.0 °C 1013.3 hPa NNW 5 km/h 8 km/h 87% 0.00 mm 0.00 W/m2
05:09 26.0 °C 24.0 °C 1013.3 hPa NW 4 km/h 4 km/h 87% 0.00 mm 0.00 W/m2
05:14 26.0 °C 24.0 °C 1013.4 hPa NE 4 km/h 4 km/h 87% 0.00 mm 0.00 W/m2
05:19 26.0 °C 23.0 °C 1013.5 hPa Calm   4 km/h 86% 0.00 mm 0.00 W/m2
05:24 26.0 °C 24.0 °C 1013.5 hPa NE 1 km/h 4 km/h 87% 0.00 mm 0.00 W/m2
05:29 26.0 °C 24.0 °C 1013.5 hPa Calm     87% 0.00 mm 0.00 W/m2
05:34 26.0 °C 24.0 °C 1013.6 hPa NNW 5 km/h 8 km/h 87% 0.00 mm 0.00 W/m2
05:39 26.0 °C 24.0 °C 1013.5 hPa NW 5 km/h 8 km/h 87% 0.00 mm 0.00 W/m2
05:44 26.0 °C 24.0 °C 1013.8 hPa NNW 8 km/h 12 km/h 87% 0.00 mm 0.00 W/m2
05:49 26.0 °C 24.0 °C 1013.5 hPa NW 6 km/h 8 km/h 87% 0.00 mm 0.00 W/m2
05:54 26.0 °C 24.0 °C 1013.6 hPa Calm     87% 0.00 mm 1.71 W/m2
05:59 26.0 °C 24.0 °C 1013.4 hPa NNW 3 km/h 4 km/h 88% 0.00 mm 3.79 W/m2
06:04 26.0 °C 24.0 °C 1013.7 hPa NNW 4 km/h 4 km/h 88% 0.00 mm 6.48 W/m2
06:09 26.0 °C 24.0 °C 1013.7 hPa North 1 km/h 4 km/h 88% 0.00 mm 9.91 W/m2
06:14 26.0 °C 24.0 °C 1013.7 hPa NNE 9 km/h 12 km/h 88% 0.00 mm 14.31 W/m2
06:19 26.0 °C 24.0 °C 1013.7 hPa North 8 km/h 12 km/h 88% 0.00 mm 18.11 W/m2
06:24 26.0 °C 24.0 °C 1013.7 hPa NNE 10 km/h 16 km/h 88% 0.00 mm 20.31 W/m2
06:29 26.0 °C 24.0 °C 1013.7 hPa North 11 km/h 20 km/h 88% 0.00 mm 23.85 W/m2
06:34 26.0 °C 24.0 °C 1013.9 hPa North 10 km/h 16 km/h 88% 0.00 mm 25.94 W/m2
06:39 26.0 °C 24.0 °C 1014.0 hPa North 17 km/h 24 km/h 87% 0.00 mm 29.48 W/m2
06:44 26.0 °C 24.0 °C 1014.2 hPa North 14 km/h 20 km/h 87% 0.00 mm 32.05 W/m2
06:49 26.0 °C 24.0 °C 1014.2 hPa NNW 14 km/h 20 km/h 87% 0.00 mm 37.19 W/m2
06:54 27.0 °C 24.0 °C 1014.2 hPa North 13 km/h 20 km/h 87% 0.00 mm 40.24 W/m2
06:59 27.0 °C 24.0 °C 1014.3 hPa North 15 km/h 20 km/h 87% 0.00 mm 41.10 W/m2
07:04 27.0 °C 24.0 °C 1014.2 hPa North 15 km/h 24 km/h 86% 0.00 mm 41.10 W/m2
07:09 27.0 °C 24.0 °C 1014.2 hPa North 10 km/h 16 km/h 85% 0.00 mm 43.31 W/m2
07:14 27.0 °C 24.0 °C 1014.2 hPa North 12 km/h 16 km/h 85% 0.00 mm 45.51 W/m2
07:19 27.0 °C 25.0 °C 1014.3 hPa North 19 km/h 28 km/h 84% 0.00 mm 47.22 W/m2
07:24 28.0 °C 25.0 °C 1014.5 hPa North 24 km/h 32 km/h 83% 0.00 mm 51.50 W/m2
07:29 28.0 °C 25.0 °C 1014.4 hPa North 19 km/h 28 km/h 83% 0.00 mm 50.28 W/m2
07:34 28.0 °C 25.0 °C 1014.4 hPa North 20 km/h 28 km/h 83% 0.00 mm 50.28 W/m2
07:39 28.0 °C 25.0 °C 1014.5 hPa North 22 km/h 32 km/h 82% 0.00 mm 51.14 W/m2
07:44 28.0 °C 25.0 °C 1014.7 hPa North 15 km/h 20 km/h 82% 0.00 mm 114.87 W/m2
07:49 28.0 °C 25.0 °C 1014.6 hPa North 15 km/h 20 km/h 81% 0.00 mm 151.33 W/m2
07:54 29.0 °C 25.0 °C 1014.6 hPa North 22 km/h 28 km/h 80% 0.00 mm 206.38 W/m2
07:59 29.0 °C 25.0 °C 1014.6 hPa North 20 km/h 20 km/h 79% 0.00 mm 197.32 W/m2
08:04 29.0 °C 25.0 °C 1014.6 hPa North 15 km/h 20 km/h 78% 0.00 mm 191.21 W/m2
08:09 29.0 °C 25.0 °C 1014.8 hPa North 20 km/h 24 km/h 78% 0.00 mm 268.03 W/m2
08:14 29.0 °C 25.0 °C 1014.8 hPa North 17 km/h 24 km/h 76% 0.00 mm 326.64 W/m2
08:19 29.0 °C 25.0 °C 1014.7 hPa North 15 km/h 24 km/h 75% 0.00 mm 341.32 W/m2
08:24 30.0 °C 25.0 °C 1015.0 hPa NNE 17 km/h 24 km/h 75% 0.00 mm 352.20 W/m2
08:29 30.0 °C 25.0 °C 1015.0 hPa North 12 km/h 16 km/h 73% 0.00 mm 481.88 W/m2
08:34 30.0 °C 25.0 °C 1014.9 hPa NNE 13 km/h 20 km/h 72% 0.00 mm 506.59 W/m2
08:39 30.0 °C 25.0 °C 1014.8 hPa North 18 km/h 20 km/h 72% 0.00 mm 560.06 W/m2
08:44 30.0 °C 25.0 °C 1014.8 hPa North 19 km/h 24 km/h 73% 0.00 mm 593.82 W/m2
08:49 30.0 °C 25.0 °C 1015.1 hPa North 17 km/h 24 km/h 72% 0.00 mm 611.19 W/m2
08:54 30.0 °C 25.0 °C 1015.1 hPa North 15 km/h 20 km/h 71% 0.00 mm 639.82 W/m2
08:59 30.0 °C 25.0 °C 1015.0 hPa North 17 km/h 24 km/h 72% 0.00 mm 585.13 W/m2
09:04 30.0 °C 25.0 °C 1015.0 hPa North 14 km/h 20 km/h 72% 0.00 mm 664.53 W/m2
09:09 31.0 °C 25.0 °C 1015.0 hPa North 15 km/h 20 km/h 71% 0.00 mm 694.87 W/m2
09:14 31.0 °C 25.0 °C 1015.0 hPa North 38 km/h 44 km/h 72% 0.00 mm 406.89 W/m2
09:19 30.0 °C 25.0 °C 1015.1 hPa NE 12 km/h 20 km/h 72% 0.00 mm 523.60 W/m2
09:24 31.0 °C 25.0 °C 1015.2 hPa North 15 km/h 20 km/h 71% 0.00 mm 549.53 W/m2
09:29 31.0 °C 25.0 °C 1015.1 hPa North 17 km/h 24 km/h 69% 0.00 mm 553.45 W/m2
09:34 31.0 °C 24.0 °C 1015.1 hPa North 19 km/h 24 km/h 67% 0.00 mm 591.62 W/m2
09:39 31.0 °C 24.0 °C 1015.1 hPa NNW 28 km/h 32 km/h 66% 0.00 mm 655.84 W/m2
09:44 32.0 °C 24.0 °C 1015.1 hPa NNE 11 km/h 16 km/h 65% 0.00 mm 651.93 W/m2
09:49 32.0 °C 24.0 °C 1015.0 hPa North 19 km/h 24 km/h 63% 0.00 mm 713.95 W/m2
09:54 32.0 °C 24.0 °C 1015.0 hPa NNW 26 km/h 36 km/h 63% 0.00 mm 703.19 W/m2
09:59 32.0 °C 24.0 °C 1014.9 hPa NNW 21 km/h 28 km/h 63% 0.00 mm 711.38 W/m2
10:04 32.0 °C 24.0 °C 1014.8 hPa NNW 16 km/h 20 km/h 63% 0.00 mm 779.89 W/m2
10:09 33.0 °C 24.0 °C 1014.7 hPa North 17 km/h 24 km/h 62% 0.00 mm 767.41 W/m2
10:14 33.0 °C 24.0 °C 1014.7 hPa North 20 km/h 28 km/h 61% 0.00 mm 733.04 W/m2
10:19 33.0 °C 24.0 °C 1014.5 hPa North 15 km/h 24 km/h 59% 0.00 mm 662.33 W/m2
10:24 33.0 °C 24.0 °C 1014.4 hPa North 20 km/h 24 km/h 59% 0.00 mm 624.16 W/m2
10:29 32.0 °C 24.0 °C 1014.3 hPa North 19 km/h 32 km/h 60% 0.00 mm 605.93 W/m2
10:34 33.0 °C 24.0 °C 1014.3 hPa North 19 km/h 24 km/h 59% 0.00 mm 576.94 W/m2
10:39 33.0 °C 24.0 °C 1014.0 hPa NE 22 km/h 32 km/h 59% 0.00 mm 640.67 W/m2
10:44 33.0 °C 24.0 °C 1014.1 hPa NNE 15 km/h 32 km/h 59% 0.00 mm 625.99 W/m2
10:49 33.0 °C 24.0 °C 1014.1 hPa NNE 19 km/h 28 km/h 58% 0.00 mm 619.02 W/m2
10:54 34.0 °C 24.0 °C 1014.0 hPa North 20 km/h 32 km/h 58% 0.00 mm 618.53 W/m2
10:59 33.0 °C 24.0 °C 1013.9 hPa North 25 km/h 32 km/h 59% 0.00 mm 606.79 W/m2
11:04 33.0 °C 24.0 °C 1013.8 hPa NNE 23 km/h 32 km/h 59% 0.00 mm 684.10 W/m2
11:09 33.0 °C 24.0 °C 1013.8 hPa NE 14 km/h 20 km/h 59% 0.00 mm 678.84 W/m2
11:14 33.0 °C 24.0 °C 1013.6 hPa North 31 km/h 40 km/h 59% 0.00 mm 642.02 W/m2
11:19 33.0 °C 24.0 °C 1013.6 hPa North 18 km/h 20 km/h 60% 0.00 mm 565.68 W/m2
11:24 33.0 °C 24.0 °C 1013.5 hPa NNW 18 km/h 24 km/h 59% 0.00 mm 694.01 W/m2
11:29 34.0 °C 24.0 °C 1013.4 hPa North 23 km/h 36 km/h 58% 0.00 mm 686.67 W/m2
11:34 34.0 °C 24.0 °C 1013.4 hPa East 13 km/h 20 km/h 58% 0.00 mm 672.36 W/m2
11:38 34.0 °C 24.0 °C 1013.5 hPa NNE 15 km/h 20 km/h 57% 0.00 mm 712.24 W/m2
11:44 34.0 °C 24.0 °C 1013.3 hPa North 21 km/h 28 km/h 59% 0.00 mm 588.68 W/m2
11:49 33.0 °C 24.0 °C 1013.3 hPa North 27 km/h 40 km/h 58% 0.00 mm 667.58 W/m2
11:54 33.0 °C 24.0 °C 1013.3 hPa North 20 km/h 28 km/h 59% 0.00 mm 614.25 W/m2
11:59 33.0 °C 24.0 °C 1013.3 hPa North 13 km/h 20 km/h 59% 0.00 mm 140.07 W/m2
12:04 33.0 °C 24.0 °C 1013.1 hPa North 20 km/h 28 km/h 59% 0.00 mm 718.36 W/m2
12:09 34.0 °C 24.0 °C 1013.1 hPa NNE 24 km/h 32 km/h 58% 0.00 mm 799.46 W/m2
12:14 34.0 °C 24.0 °C 1013.1 hPa NNW 15 km/h 24 km/h 55% 0.00 mm 796.04 W/m2
12:19 34.0 °C 24.0 °C 1012.8 hPa North 18 km/h 24 km/h 56% 0.00 mm 842.41 W/m2
12:24 34.0 °C 24.0 °C 1012.5 hPa NNW 21 km/h 32 km/h 56% 0.00 mm 852.44 W/m2
12:29 34.0 °C 24.0 °C 1012.2 hPa North 27 km/h 36 km/h 57% 0.00 mm 262.78 W/m2
12:34 34.0 °C 23.0 °C 1012.3 hPa North 23 km/h 36 km/h 55% 0.00 mm 854.51 W/m2
12:39 34.0 °C 24.0 °C 1012.1 hPa NE 22 km/h 36 km/h 55% 0.00 mm 805.58 W/m2
12:44 34.0 °C 24.0 °C 1011.9 hPa NNE 12 km/h 20 km/h 56% 0.00 mm 408.60 W/m2
12:49 34.0 °C 24.0 °C 1011.7 hPa North 15 km/h 20 km/h 56% 0.00 mm 758.73 W/m2
12:54 34.0 °C 24.0 °C 1011.6 hPa North 22 km/h 28 km/h 56% 0.00 mm 244.67 W/m2
12:59 34.0 °C 24.0 °C 1011.5 hPa North 19 km/h 28 km/h 57% 0.00 mm 752.61 W/m2
13:04 34.0 °C 24.0 °C 1011.5 hPa NNE 19 km/h 24 km/h 56% 0.00 mm 659.76 W/m2
13:09 34.0 °C 24.0 °C 1011.4 hPa North 19 km/h 28 km/h 55% 0.00 mm 527.51 W/m2
13:14 34.0 °C 24.0 °C 1011.4 hPa NNE 15 km/h 16 km/h 55% 0.00 mm 588.19 W/m2
13:19 34.0 °C 24.0 °C 1011.3 hPa North 12 km/h 16 km/h 54% 0.00 mm 624.16 W/m2
13:24 34.0 °C 23.0 °C 1011.3 hPa NE 12 km/h 16 km/h 53% 0.00 mm 635.53 W/m2
13:29 34.0 °C 23.0 °C 1011.4 hPa NE 17 km/h 24 km/h 52% 0.00 mm 550.88 W/m2
13:34 34.0 °C 23.0 °C 1011.5 hPa East 25 km/h 32 km/h 53% 0.00 mm 511.85 W/m2
13:39 35.0 °C 23.0 °C 1011.3 hPa NNE 10 km/h 16 km/h 51% 0.00 mm 509.65 W/m2
13:44 35.0 °C 23.0 °C 1011.1 hPa North 18 km/h 28 km/h 50% 0.00 mm 605.56 W/m2
13:49 35.0 °C 23.0 °C 1010.8 hPa North 17 km/h 28 km/h 48% 0.00 mm 631.62 W/m2
13:54 35.0 °C 23.0 °C 1010.8 hPa East 30 km/h 36 km/h 48% 0.00 mm 638.47 W/m2
13:59 35.0 °C 23.0 °C 1010.8 hPa ENE 25 km/h 32 km/h 49% 0.00 mm 601.16 W/m2
14:04 35.0 °C 23.0 °C 1010.6 hPa NNE 28 km/h 40 km/h 50% 0.00 mm 596.87 W/m2
14:09 35.0 °C 23.0 °C 1010.6 hPa NNE 17 km/h 28 km/h 50% 0.00 mm 591.25 W/m2
14:14 35.0 °C 23.0 °C 1010.7 hPa East 30 km/h 40 km/h 51% 0.00 mm 569.11 W/m2
14:19 35.0 °C 23.0 °C 1010.6 hPa NNE 17 km/h 24 km/h 50% 0.00 mm 608.99 W/m2
14:24 35.0 °C 23.0 °C 1010.4 hPa ENE 18 km/h 28 km/h 49% 0.00 mm 498.89 W/m2
14:29 35.0 °C 22.0 °C 1010.5 hPa NE 14 km/h 20 km/h 50% 0.00 mm 227.30 W/m2
14:34 34.0 °C 23.0 °C 1010.5 hPa NE 31 km/h 44 km/h 52% 0.00 mm 410.32 W/m2
14:39 34.0 °C 23.0 °C 1010.7 hPa East 27 km/h 36 km/h 52% 0.00 mm 213.84 W/m2
14:44 34.0 °C 23.0 °C 1010.5 hPa ENE 21 km/h 28 km/h 53% 0.00 mm 187.78 W/m2
14:49 34.0 °C 23.0 °C 1010.6 hPa ENE 22 km/h 28 km/h 52% 0.00 mm 162.22 W/m2
14:54 34.0 °C 23.0 °C 1010.7 hPa East 20 km/h 28 km/h 53% 0.00 mm 154.75 W/m2
14:59 34.0 °C 23.0 °C 1010.6 hPa NE 23 km/h 28 km/h 54% 0.00 mm 150.47 W/m2
15:04 34.0 °C 23.0 °C 1010.6 hPa ENE 20 km/h 28 km/h 54% 0.00 mm 142.27 W/m2
15:09 34.0 °C 23.0 °C 1010.5 hPa ENE 18 km/h 20 km/h 54% 0.00 mm 129.19 W/m2
15:14 34.0 °C 23.0 °C 1010.3 hPa NE 22 km/h 32 km/h 53% 0.00 mm 119.27 W/m2
15:19 34.0 °C 23.0 °C 1010.3 hPa NNE 10 km/h 16 km/h 53% 0.00 mm 112.67 W/m2
15:24 34.0 °C 23.0 °C 1010.4 hPa ENE 16 km/h 24 km/h 53% 0.00 mm 104.96 W/m2
15:29 34.0 °C 23.0 °C 1010.3 hPa NE 15 km/h 16 km/h 54% 0.00 mm 101.41 W/m2
15:34 34.0 °C 23.0 °C 1010.3 hPa NNE 9 km/h 16 km/h 53% 0.00 mm 94.56 W/m2
15:39 34.0 °C 23.0 °C 1010.2 hPa North 14 km/h 20 km/h 54% 0.00 mm 88.82 W/m2
15:44 34.0 °C 23.0 °C 1010.3 hPa NE 9 km/h 16 km/h 54% 0.00 mm 86.73 W/m2
15:49 34.0 °C 23.0 °C 1010.3 hPa ENE 19 km/h 24 km/h 54% 0.00 mm 84.04 W/m2
15:54 33.0 °C 23.0 °C 1010.3 hPa SE 18 km/h 24 km/h 54% 0.00 mm 83.19 W/m2
15:59 33.0 °C 23.0 °C 1010.9 hPa NE 15 km/h 20 km/h 55% 0.00 mm 82.33 W/m2
16:04 33.0 °C 23.0 °C 1010.9 hPa ENE 21 km/h 28 km/h 56% 0.00 mm 84.53 W/m2
16:09 33.0 °C 23.0 °C 1010.8 hPa NE 11 km/h 16 km/h 56% 0.00 mm 104.96 W/m2
16:14 33.0 °C 23.0 °C 1011.0 hPa NE 15 km/h 24 km/h 56% 0.00 mm 109.73 W/m2
16:19 33.0 °C 23.0 °C 1011.1 hPa ENE 10 km/h 16 km/h 56% 0.00 mm 95.79 W/m2
16:24 33.0 °C 23.0 °C 1011.3 hPa NE 10 km/h 12 km/h 56% 0.00 mm 64.96 W/m2
16:29 33.0 °C 23.0 °C 1011.4 hPa NNE 14 km/h 28 km/h 57% 0.00 mm 45.02 W/m2
16:34 33.0 °C 23.0 °C 1011.5 hPa NE 16 km/h 20 km/h 58% 0.00 mm 46.73 W/m2
16:39 32.0 °C 23.0 °C 1011.6 hPa NE 18 km/h 28 km/h 60% 0.00 mm 52.85 W/m2
16:44 32.0 °C 23.0 °C 1011.7 hPa NE 12 km/h 16 km/h 60% 0.00 mm 47.22 W/m2
16:49 32.0 °C 23.0 °C 1011.8 hPa NNE 20 km/h 24 km/h 60% 0.00 mm 44.16 W/m2
16:54 32.0 °C 23.0 °C 1011.7 hPa NE 16 km/h 28 km/h 60% 0.00 mm 41.59 W/m2
16:59 32.0 °C 23.0 °C 1011.8 hPa NE 17 km/h 28 km/h 61% 0.00 mm 32.90 W/m2
17:04 32.0 °C 23.0 °C 1012.0 hPa ENE 13 km/h 20 km/h 61% 0.00 mm 17.25 W/m2
17:09 32.0 °C 23.0 °C 1012.0 hPa NNE 17 km/h 28 km/h 62% 0.00 mm 10.77 W/m2
17:14 31.0 °C 23.0 °C 1011.9 hPa NE 11 km/h 16 km/h 62% 0.00 mm 8.19 W/m2
17:19 31.0 °C 23.0 °C 1012.0 hPa NE 15 km/h 24 km/h 63% 0.00 mm 4.28 W/m2
17:24 31.0 °C 23.0 °C 1012.1 hPa NNE 9 km/h 16 km/h 63% 0.00 mm 0.85 W/m2
17:29 31.0 °C 24.0 °C 1012.1 hPa North 13 km/h 20 km/h 64% 0.00 mm 0.00 W/m2
17:34 31.0 °C 24.0 °C 1012.2 hPa NNE 15 km/h 24 km/h 65% 0.00 mm 0.00 W/m2
17:39 31.0 °C 23.0 °C 1012.3 hPa North 19 km/h 28 km/h 65% 0.00 mm 0.00 W/m2
17:44 31.0 °C 23.0 °C 1012.3 hPa North 21 km/h 28 km/h 65% 0.00 mm 0.00 W/m2
17:49 31.0 °C 23.0 °C 1012.3 hPa North 25 km/h 36 km/h 65% 0.00 mm 0.00 W/m2
17:54 30.0 °C 23.0 °C 1012.2 hPa North 17 km/h 28 km/h 66% 0.00 mm 0.00 W/m2
17:59 30.0 °C 23.0 °C 1012.1 hPa North 23 km/h 28 km/h 66% 0.00 mm 0.00 W/m2
18:04 30.0 °C 23.0 °C 1012.1 hPa NNE 15 km/h 24 km/h 67% 0.00 mm 0.00 W/m2
18:09 30.0 °C 23.0 °C 1012.1 hPa NE 13 km/h 20 km/h 67% 0.00 mm 0.00 W/m2
18:14 30.0 °C 23.0 °C 1011.9 hPa NNE 11 km/h 16 km/h 68% 0.00 mm 0.00 W/m2
18:19 30.0 °C 23.0 °C 1012.2 hPa NE 14 km/h 20 km/h 68% 0.00 mm 0.00 W/m2
18:24 30.0 °C 23.0 °C 1012.1 hPa NNE 15 km/h 20 km/h 68% 0.00 mm 0.00 W/m2
18:29 30.0 °C 23.0 °C 1011.9 hPa NNE 10 km/h 20 km/h 68% 0.00 mm 0.00 W/m2
18:34 30.0 °C 23.0 °C 1011.8 hPa ENE 14 km/h 16 km/h 68% 0.00 mm 0.00 W/m2
18:39 30.0 °C 23.0 °C 1012.0 hPa NE 10 km/h 16 km/h 68% 0.00 mm 0.00 W/m2
18:44 30.0 °C 23.0 °C 1012.0 hPa ENE 20 km/h 28 km/h 68% 0.00 mm 0.00 W/m2
18:49 30.0 °C 23.0 °C 1011.9 hPa ESE 21 km/h 24 km/h 68% 0.00 mm 0.00 W/m2
18:54 30.0 °C 23.0 °C 1012.0 hPa ENE 23 km/h 24 km/h 67% 0.00 mm 0.00 W/m2
18:59 30.0 °C 23.0 °C 1012.0 hPa ENE 13 km/h 20 km/h 67% 0.00 mm 0.00 W/m2
19:04 30.0 °C 23.0 °C 1012.0 hPa ENE 17 km/h 24 km/h 67% 0.00 mm 0.00 W/m2
19:09 30.0 °C 23.0 °C 1012.0 hPa ENE 15 km/h 20 km/h 67% 0.00 mm 0.00 W/m2
19:14 30.0 °C 23.0 °C 1012.0 hPa NE 14 km/h 16 km/h 66% 0.00 mm 0.00 W/m2
19:19 30.0 °C 23.0 °C 1012.0 hPa NNW 9 km/h 12 km/h 67% 0.00 mm 0.00 W/m2
19:24 30.0 °C 23.0 °C 1012.0 hPa ENE 14 km/h 16 km/h 67% 0.00 mm 0.00 W/m2
19:29 30.0 °C 23.0 °C 1012.2 hPa NNW 3 km/h 4 km/h 67% 0.00 mm 0.00 W/m2
19:34 30.0 °C 23.0 °C 1012.3 hPa WNW 5 km/h 8 km/h 68% 0.00 mm 0.00 W/m2
19:39 30.0 °C 23.0 °C 1012.4 hPa SW 6 km/h 8 km/h 68% 0.00 mm 0.00 W/m2
19:44 30.0 °C 23.0 °C 1012.4 hPa East 10 km/h 12 km/h 68% 0.00 mm 0.00 W/m2
19:49 30.0 °C 23.0 °C 1012.3 hPa ENE 5 km/h 8 km/h 68% 0.00 mm 0.00 W/m2
19:54 30.0 °C 23.0 °C 1012.3 hPa SSW 3 km/h 4 km/h 68% 0.00 mm 0.00 W/m2
19:59 30.0 °C 23.0 °C 1012.3 hPa ENE 2 km/h 4 km/h 68% 0.00 mm 0.00 W/m2
20:04 30.0 °C 23.0 °C 1012.4 hPa ENE 4 km/h 4 km/h 68% 0.00 mm 0.00 W/m2
20:09 30.0 °C 23.0 °C 1012.6 hPa NE 5 km/h 8 km/h 68% 0.00 mm 0.00 W/m2
20:14 30.0 °C 23.0 °C 1012.6 hPa NE 1 km/h 4 km/h 68% 0.00 mm 0.00 W/m2
20:19 30.0 °C 23.0 °C 1012.5 hPa ENE 5 km/h 8 km/h 68% 0.00 mm 0.00 W/m2
20:24 30.0 °C 23.0 °C 1012.5 hPa ENE 5 km/h 8 km/h 68% 0.00 mm 0.00 W/m2
20:29 30.0 °C 23.0 °C 1012.5 hPa NE 4 km/h 4 km/h 68% 0.00 mm 0.00 W/m2
20:34 30.0 °C 23.0 °C 1012.5 hPa NE 3 km/h 8 km/h 68% 0.00 mm 0.00 W/m2
20:39 29.0 °C 23.0 °C 1012.4 hPa NNE 4 km/h 8 km/h 68% 0.00 mm 0.00 W/m2
20:44 29.0 °C 23.0 °C 1012.4 hPa Calm   4 km/h 68% 0.00 mm 0.00 W/m2
20:49 29.0 °C 23.0 °C 1012.4 hPa NNE 3 km/h 4 km/h 68% 0.00 mm 0.00 W/m2
20:54 29.0 °C 23.0 °C 1012.6 hPa NNE 7 km/h 8 km/h 69% 0.00 mm 0.00 W/m2
20:59 29.0 °C 23.0 °C 1012.7 hPa NNW 6 km/h 8 km/h 69% 0.00 mm 0.00 W/m2
21:04 29.0 °C 23.0 °C 1012.7 hPa North 5 km/h 8 km/h 70% 0.00 mm 0.00 W/m2
21:09 29.0 °C 23.0 °C 1012.5 hPa NNW 5 km/h 8 km/h 70% 0.00 mm 0.00 W/m2
21:14 29.0 °C 23.0 °C 1012.4 hPa NNW 6 km/h 8 km/h 70% 0.00 mm 0.00 W/m2
21:19 29.0 °C 23.0 °C 1012.5 hPa North 5 km/h 8 km/h 70% 0.00 mm 0.00 W/m2
21:24 29.0 °C 23.0 °C 1012.4 hPa North 11 km/h 12 km/h 70% 0.00 mm 0.00 W/m2
21:29 29.0 °C 23.0 °C 1012.4 hPa NNW 7 km/h 8 km/h 70% 0.00 mm 0.00 W/m2
21:34 29.0 °C 23.0 °C 1012.3 hPa North 8 km/h 8 km/h 70% 0.00 mm 0.00 W/m2
21:39 29.0 °C 23.0 °C 1012.3 hPa North 8 km/h 12 km/h 71% 0.00 mm 0.00 W/m2
21:44 29.0 °C 23.0 °C 1012.3 hPa North 8 km/h 12 km/h 71% 0.00 mm 0.00 W/m2
21:49 29.0 °C 23.0 °C 1012.3 hPa North 8 km/h 12 km/h 71% 0.00 mm 0.00 W/m2
21:54 29.0 °C 23.0 °C 1012.2 hPa North 6 km/h 8 km/h 70% 0.00 mm 0.00 W/m2
21:59 29.0 °C 23.0 °C 1012.2 hPa North 10 km/h 12 km/h 70% 0.00 mm 0.00 W/m2
22:04 29.0 °C 23.0 °C 1012.2 hPa North 5 km/h 8 km/h 70% 0.00 mm 0.00 W/m2
22:09 29.0 °C 23.0 °C 1012.1 hPa NNW 8 km/h 8 km/h 71% 0.00 mm 0.00 W/m2
22:14 29.0 °C 23.0 °C 1012.0 hPa NNW 11 km/h 16 km/h 71% 0.00 mm 0.00 W/m2
22:19 29.0 °C 23.0 °C 1011.9 hPa NNW 12 km/h 16 km/h 71% 0.00 mm 0.00 W/m2
22:24 29.0 °C 23.0 °C 1012.0 hPa North 9 km/h 12 km/h 71% 0.00 mm 0.00 W/m2
22:29 29.0 °C 23.0 °C 1011.9 hPa NNW 16 km/h 16 km/h 71% 0.00 mm 0.00 W/m2
22:34 29.0 °C 23.0 °C 1011.8 hPa NNW 14 km/h 16 km/h 71% 0.00 mm 0.00 W/m2
22:39 29.0 °C 23.0 °C 1011.9 hPa NNW 12 km/h 16 km/h 71% 0.00 mm 0.00 W/m2
22:44 29.0 °C 23.0 °C 1011.8 hPa NW 9 km/h 12 km/h 71% 0.00 mm 0.00 W/m2
22:49 29.0 °C 23.0 °C 1012.1 hPa NNW 4 km/h 4 km/h 71% 0.00 mm 0.00 W/m2
22:54 29.0 °C 23.0 °C 1012.0 hPa North 5 km/h 8 km/h 71% 0.00 mm 0.00 W/m2
22:59 29.0 °C 23.0 °C 1012.1 hPa NW 3 km/h 4 km/h 71% 0.00 mm 0.00 W/m2
23:04 29.0 °C 23.0 °C 1012.0 hPa NW 4 km/h 8 km/h 71% 0.00 mm 0.00 W/m2
23:09 29.0 °C 23.0 °C 1012.0 hPa NNW 9 km/h 12 km/h 71% 0.00 mm 0.00 W/m2
23:14 29.0 °C 23.0 °C 1011.9 hPa NNW 10 km/h 12 km/h 71% 0.00 mm 0.00 W/m2
23:19 29.0 °C 23.0 °C 1011.8 hPa North 12 km/h 16 km/h 71% 0.00 mm 0.00 W/m2
23:24 29.0 °C 23.0 °C 1012.0 hPa NNE 5 km/h 8 km/h 72% 0.00 mm 0.00 W/m2
23:29 29.0 °C 23.0 °C 1011.8 hPa NNW 9 km/h 12 km/h 72% 0.00 mm 0.00 W/m2
23:34 29.0 °C 23.0 °C 1011.8 hPa North 12 km/h 16 km/h 72% 0.00 mm 0.00 W/m2
23:39 29.0 °C 23.0 °C 1011.8 hPa North 14 km/h 20 km/h 73% 0.00 mm 0.00 W/m2
23:44 29.0 °C 23.0 °C 1011.8 hPa North 21 km/h 28 km/h 73% 0.00 mm 0.00 W/m2
23:49 29.0 °C 23.0 °C 1011.8 hPa North 15 km/h 20 km/h 74% 0.00 mm 0.00 W/m2
23:54 28.0 °C 23.0 °C 1011.7 hPa North 13 km/h 16 km/h 74% 0.00 mm 0.00 W/m2
23:59 28.0 °C 23.0 °C 1011.6 hPa North 18 km/h 20 km/h 74% 0.00 mm 0.00 W/m2
PIMOHWEATHER Philippines
Compliments of Weather Underground - 2 mb